Saint Paul, MN

5:41 AM CST on December 07, 2016 (GMT -0600)
Saint Paul Downtown-Holman

Weather History for KSTP - March, 2014

Change the Weather History Date:

Monday, March 31, 2014

  Actual Average Record
Temperature  
Mean Temperature 42 °F -  
Max Temperature 57 °F 46 °F 64 °F (2015)
Min Temperature 30 °F 29 °F 25 °F (1997)
Degree Days  
Heating Degree Days 22    
Moisture  
Dew Point 38 °F    
Average Humidity 72    
Maximum Humidity 89    
Minimum Humidity 59    
Precipitation  
Precipitation 0.01 in - - ()
Sea Level Pressure  
Sea Level Pressure 29.55 in    
Wind  
Wind Speed 11 mph (SE)    
Max Wind Speed 21 mph    
Max Gust Speed 31 mph    
Visibility 9 miles    
Events Rain , Thunderstorm    
Averages and records for this station are not official NWS values.
T = Trace of Precipitation, MM = Missing Value Source: NWS Daily Summary

Daily Weather History Graph

Daily Weather History Graph

Search for Another Location

Airport or City:

Trip Planner

Search our weather history database for the weather conditions in past years. The results will help you decide how hot, cold, wet, or windy it might be!

Date:

Astronomy

Mar. 31, 2014 Rise Set
Actual Time 6:54 AM CDT 7:38 PM CDT
Civil Twilight 6:25 AM CDT 8:08 PM CDT
Nautical Twilight 5:50 AM CDT 8:43 PM CDT
Astronomical Twilight 5:13 AM CDT 9:20 PM CDT
Moon 7:15 AM CDT (3/31) 9:02 PM CDT (3/31)
Length of Visible Light 13h 43m
Length of Day
12h 44m
New Moon, 1% of the Moon is Illuminated
Mar 31
New Moon
Apr 7
First Quarter
Apr 15
Full
Apr 22
Last Quarter
Apr 29
New

Hourly Weather History & Observations

Time (CDT) Temp. Windchill Dew Point Humidity Pressure Visibility Wind Dir Wind Speed Gust Speed Precip Events Conditions
12:53 AM 46.9 °F - 35.1 °F 63% 29.77 in 10.0 mi SE 8.1 mph - N/A   Clear
1:53 AM 46.9 °F - 34.0 °F 61% 29.76 in 10.0 mi SE 9.2 mph - N/A   Clear
2:53 AM 46.9 °F - 33.1 °F 59% 29.74 in 10.0 mi SE 10.4 mph - N/A   Clear
3:53 AM 46.9 °F - 33.1 °F 59% 29.72 in 10.0 mi SE 9.2 mph - N/A   Clear
4:53 AM 46.0 °F 43.9 °F 33.1 °F 61% 29.71 in 10.0 mi ESE 4.6 mph - N/A   Clear
5:53 AM 46.0 °F 41.4 °F 33.1 °F 61% 29.70 in 10.0 mi ESE 9.2 mph - N/A   Clear
6:53 AM 46.0 °F 40.6 °F 33.1 °F 61% 29.68 in 10.0 mi SE 11.5 mph - N/A   Clear
7:53 AM 46.0 °F 41.0 °F 34.0 °F 63% 29.69 in 10.0 mi SE 10.4 mph - N/A   Mostly Cloudy
8:53 AM 48.0 °F - 35.1 °F 61% 29.68 in 10.0 mi SE 11.5 mph - N/A   Scattered Clouds
9:53 AM 46.0 °F 41.0 °F 39.0 °F 76% 29.66 in 7.0 mi SE 10.4 mph 21.9 mph 0.00 in Rain Light Rain
10:53 AM 44.1 °F 37.4 °F 41.0 °F 89% 29.63 in 6.0 mi ESE 13.8 mph - 0.01 in Rain Light Rain
11:24 AM 44.1 °F 37.1 °F 41.0 °F 89% 29.63 in 7.0 mi ESE 15.0 mph - 0.00 in   Overcast
11:53 AM 45.0 °F 38.9 °F 41.0 °F 86% 29.62 in 7.0 mi SE 12.7 mph 21.9 mph 0.00 in   Mostly Cloudy
12:05 PM 46.0 °F 39.6 °F 41.0 °F 83% 29.61 in 7.0 mi SE 15.0 mph - N/A   Mostly Cloudy
12:53 PM 46.9 °F - 39.9 °F 77% 29.58 in 9.0 mi ESE 12.7 mph - N/A   Overcast
1:53 PM 50.0 °F - 42.1 °F 74% 29.54 in 10.0 mi ESE 15.0 mph - N/A   Mostly Cloudy
2:46 PM 52.0 °F - 43.0 °F 71% 29.51 in 10.0 mi ESE 13.8 mph 24.2 mph N/A   Mostly Cloudy
2:53 PM 52.0 °F - 43.0 °F 71% 29.50 in 10.0 mi ESE 11.5 mph - N/A   Mostly Cloudy
3:53 PM 53.1 °F - 44.1 °F 71% 29.47 in 10.0 mi ESE 11.5 mph - N/A   Overcast
4:03 PM 53.1 °F - 44.1 °F 71% 29.46 in 10.0 mi ESE 10.4 mph - N/A   Overcast
4:53 PM 55.9 °F - 45.0 °F 67% 29.42 in 10.0 mi SE 16.1 mph - N/A   Overcast
5:53 PM 55.9 °F - 45.0 °F 67% 29.38 in 10.0 mi SE 13.8 mph - N/A   Clear
6:53 PM 55.9 °F - 45.0 °F 67% 29.37 in 10.0 mi SE 12.7 mph 24.2 mph N/A   Scattered Clouds
7:51 PM 53.6 °F - 46.4 °F 77% 29.37 in 10.0 mi SSE 17.3 mph - 0.00 in Thunderstorm Mostly Cloudy
7:53 PM 54.0 °F - 46.0 °F 75% 29.37 in 10.0 mi SSE 15.0 mph - 0.00 in Thunderstorm Mostly Cloudy
8:06 PM 54.0 °F - 46.0 °F 75% 29.36 in 10.0 mi SE 12.7 mph - N/A   Overcast
8:53 PM 53.1 °F - 46.0 °F 77% 29.36 in 10.0 mi SSE 11.5 mph - 0.00 in Rain Light Rain
9:53 PM 41.0 °F 31.6 °F 33.1 °F 73% 29.42 in 10.0 mi South 20.7 mph 31.1 mph 0.00 in   Overcast
10:24 PM 37.0 °F 26.4 °F 30.0 °F 76% 29.44 in 10.0 mi South 20.7 mph 28.8 mph N/A   Mostly Cloudy
10:53 PM 35.1 °F 24.8 °F 28.0 °F 76% 29.45 in 10.0 mi South 17.3 mph 23.0 mph N/A   Overcast
11:41 PM 30.9 °F 20.7 °F 28.0 °F 89% 29.45 in 8.0 mi South 13.8 mph 25.3 mph N/A   Overcast
11:53 PM 30.9 °F 20.2 °F 27.0 °F 85% 29.47 in 9.0 mi South 15.0 mph - N/A   Overcast